Location: Catacaguana
(10.4120°N, 66.7591°W)
Time: 05:02:09
(UTC+00:00)

Cosmos 1151 Rocket - Pass Details

Date: 27 May 2022
Orbit: 592 x 615 km, 82.5° (Epoch: 26 June)

Event Time Altitude Azimuth Distance (km) Brightness Sun altitude
Rises 00:11:48 0° 197° (SSW) 2,851 6.4 -20.4°
Reaches altitude 10° 00:14:06 10° 204° (SSW) 1,944 5.6 -20.9°
Maximum altitude 00:18:10 42° 275° (W) 859 4.2 -21.8°
Drops below altitude 10° 00:22:13 10° 346° (NNW) 1,930 6.1 -22.7°
Sets 00:24:30 0° 353° (N) 2,828 6.9 -23.2°
